Overview Statistics Trail Chart Weather Telemetry Raw packets
 

This is the latest recevied weather packets stored in our database for station/object IU5GBO-13. If no packets are shown the sender has not sent any weather packets the latest 10 day(s).

<< 48 49 50 51 52 53 54 >>
Time Temp. Humidity Pressure Rain* Wind** Luminosity Snow
1777322770 15° C 67% 1018.9 hPa - - - -
1777322171 15° C 66% 1018.9 hPa - - - -
1777321570 15.56° C 65% 1019 hPa - - - -
1777320970 16.11° C 64% 1018.9 hPa - - - -
1777320370 16.11° C 64% 1018.9 hPa - - - -
1777319770 16.11° C 63% 1018.8 hPa - - - -
1777319170 16.67° C 63% 1018.9 hPa - - - -
1777318570 16.67° C 64% 1018.8 hPa - - - -
1777317970 17.22° C 65% 1018.7 hPa - - - -
1777317370 17.22° C 64% 1018.6 hPa - - - -
1777316211 17.22° C 65% 1018.5 hPa - - - -
1777315611 17.78° C 65% 1018.3 hPa - - - -
1777315011 17.78° C 64% 1018.2 hPa - - - -
1777314411 18.33° C 63% 1018.3 hPa - - - -
1777313811 18.33° C 61% 1018.1 hPa - - - -
1777313211 18.33° C 61% 1018.2 hPa - - - -
1777312611 18.89° C 59% 1018 hPa - - - -
1777312011 18.89° C 58% 1018 hPa - - - -
1777311411 19.44° C 56% 1018 hPa - - - -
1777310811 19.44° C 52% 1018 hPa - - - -
1777310211 20° C 52% 1017.9 hPa - - - -
1777309611 20° C 53% 1017.8 hPa - - - -
1777309011 20° C 51% 1017.9 hPa - - - -
1777308411 20.56° C 51% 1018.1 hPa - - - -
1777307811 20.56° C 51% 1018.1 hPa - - - -

* Rain since midnight (hover to see other rain measurements)
** Current wind speed in m/s (hover to see current wind gust speed)